[[{"header":{"parameterUnit":"m.s-1","parameterCategory":1,"la1":30.2991,"la2":30.254,"lo1":-89.0895,"lo2":-89.0444,"dy":0.0017,"dx":0.0017,"nx":28,"ny":28,"refTime":"2024-05-02T09:00:00:Z","depth":0,"parameterNumber":2,"parameterNumberName":"U-component_of_WINDS"},"data":[0,0,0,0,0,0,0,0,0,0,0,0,0,0,0,0,0,0,0,0,0,0,0,0,0,0,0,0,0,0,0,0,0,0,0,0,0,0,0,0,0,0,0,0,0,0,0,0,0,0,0,0,0,0,0,0,0,0,-1.3625,-1.3625,0,-1.3615,-1.3614,-1.3614,-1.3588,-1.3587,-1.3587,-1.3586,-1.3576,-1.3577,-1.3577,0,0,0,0,0,0,0,0,0,0,0,0,0,-1.3624,-1.3624,-1.3625,-1.3625,-1.3625,-1.3615,-1.3614,-1.3614,-1.3588,-1.3587,-1.3587,-1.3586,-1.3576,-1.3577,-1.3577,0,0,0,0,0,0,0,0,0,0,0,0,0,-1.362,-1.3624,-1.3625,-1.3611,-1.3609,-1.3615,-1.3614,-1.3614,-1.3588,-1.3587,-1.3586,-1.3586,-1.3576,-1.3577,-1.3577,-1.3596,0,0,-1.3578,-1.3578,0,0,0,0,0,0,0,0,-1.362,-1.362,-1.3613,-1.3612,-1.361,-1.3602,-1.361,-1.3608,-1.3588,-1.3596,-1.3586,-1.3585,-1.3586,-1.3585,-1.3585,-1.3596,-1.3595,-1.3578,-1.3579,-1.3579,-1.3579,0,0,0,0,0,0,0,-1.362,-1.362,-1.3621,-1.3613,-1.3611,-1.3605,-1.3603,-1.361,-1.3596,-1.3595,-1.3593,-1.3593,-1.3585,-1.3585,-1.3585,-1.3595,-1.3578,-1.3579,-1.3579,-1.3579,-1.3621,-1.3622,0,0,0,0,0,0,-1.3623,-1.3621,-1.3621,-1.3621,-1.3613,-1.3605,-1.3604,-1.3605,-1.3596,-1.3593,-1.3593,-1.3591,-1.3585,-1.3584,-1.3584,-1.3606,-1.3579,-1.3579,-1.3579,-1.362,-1.3621,-1.3622,0,0,0,0,0,0,-1.3623,-1.3623,-1.3622,-1.362,-1.3619,-1.3606,-1.3608,-1.3605,-1.3605,-1.3594,-1.3591,-1.3596,-1.3584,-1.3584,-1.3593,-1.3605,-1.3579,-1.358,-1.3619,-1.362,-1.3622,-1.3649,0,0,0,0,0,0,-1.3623,-1.3623,-1.363,-1.362,-1.362,-1.3631,-1.3609,-1.3606,-1.3606,-1.3603,-1.3596,-1.3594,-1.3583,-1.3593,-1.3594,-1.3605,-1.358,-1.3618,-1.362,-1.3621,-1.3647,-1.3651,-1.3655,0,0,0,0,0,-1.3623,-1.3639,-1.3631,-1.3631,-1.3628,-1.3632,-1.3631,-1.3618,-1.3607,-1.3614,-1.3607,-1.3594,-1.3604,-1.3594,-1.3595,-1.3606,-1.3617,-1.3619,-1.3621,-1.3645,-1.365,-1.3654,0,0,0,0,0,0,-1.365,-1.3637,-1.3628,-1.3641,-1.3638,-1.3627,-1.3635,-1.3624,-1.3624,-1.3622,-1.3606,-1.3605,-1.3617,-1.3613,-1.3602,-1.3624,-1.3608,-1.3611,-1.3626,-1.3631,-1.3635,-1.3635,-1.358,0,0,0,0,0,-1.3658,-1.3662,-1.365,-1.3663,-1.3661,-1.3649,-1.365,-1.364,-1.3636,-1.3635,-1.3628,-1.3625,-1.3627,-1.3629,-1.3631,-1.3646,-1.3644,-1.3655,-1.3659,-1.3662,-1.3664,-1.3672,-1.3676,-1.3629,-1.3628,-1.3628,0,0,-1.3674,-1.3667,-1.367,-1.3668,-1.3664,-1.3668,-1.3648,-1.3653,-1.3656,-1.3636,-1.3644,-1.3639,-1.3635,-1.3647,-1.3653,-1.3644,-1.3676,-1.3664,-1.3667,-1.3667,-1.3674,-1.3679,-1.3683,-1.363,-1.363,-1.3629,0,0,-1.3704,-1.37,-1.3709,-1.3706,-1.37,-1.3692,-1.3694,-1.3685,-1.3681,-1.3689,-1.3674,-1.3677,-1.3682,-1.3679,-1.3678,-1.3708,-1.3696,-1.3709,-1.3729,-1.3736,-1.374,-1.3743,-1.3753,-1.3757,-1.3711,-1.3711,-1.3711,0,-1.3725,-1.373,-1.3716,-1.3722,-1.3722,-1.3703,-1.3713,-1.371,-1.3706,-1.3706,-1.3696,-1.3701,-1.3697,-1.3708,-1.3716,-1.3716,-1.3718,-1.3709,-1.3741,-1.3744,-1.3746,-1.3756,-1.376,-1.3713,-1.3712,-1.3712,-1.3712,0,-1.3755,-1.3759,-1.3768,-1.3763,-1.3764,-1.3772,-1.3759,-1.3762,-1.3752,-1.3745,-1.3753,-1.3747,-1.3747,-1.3749,-1.374,-1.376,-1.3755,-1.3743,-1.3727,-1.3753,-1.3761,-1.3765,-1.3715,-1.3714,-1.3714,-1.3713,0,0,-1.3803,-1.379,-1.3794,-1.3791,-1.3783,-1.3786,-1.3794,-1.3793,-1.3795,-1.3793,-1.3798,-1.3802,-1.3791,-1.3791,-1.3781,-1.3788,-1.3811,-1.3776,-1.3775,-1.3782,-1.3832,-1.384,-1.3845,-1.3804,-1.3804,-1.3805,-1.3832,0,-1.3832,-1.3843,-1.383,-1.3844,-1.3848,-1.383,-1.3836,-1.3832,-1.3826,-1.3828,-1.3821,-1.3823,-1.3809,-1.3809,-1.3815,-1.3807,-1.3821,-1.3805,-1.3809,-1.3809,-1.381,-1.3849,-1.3858,-1.3884,-1.3835,-1.3836,-1.3836,0,-1.3867,-1.3865,-1.3879,-1.387,-1.3871,-1.3877,-1.3875,-1.3877,-1.3873,-1.3867,-1.3866,-1.3855,-1.3861,-1.3845,-1.3854,-1.3844,-1.3845,-1.3841,-1.3842,-1.3842,-1.3824,-1.385,-1.3892,-1.3896,-1.3842,-1.3841,-1.3841,0,-1.39,-1.3901,-1.391,-1.3908,-1.3898,-1.3902,-1.3898,-1.3893,-1.3893,-1.3891,-1.3891,-1.3891,-1.3891,-1.3891,-1.388,-1.3869,-1.389,-1.3873,-1.3886,-1.3886,-1.3891,-1.3891,-1.3934,-1.3892,-1.3892,-1.3892,-1.3892,0,-1.3933,-1.3942,-1.3924,-1.393,-1.3939,-1.3925,-1.3935,-1.3929,-1.3924,-1.3928,-1.3913,-1.3917,-1.3902,-1.3905,-1.3896,-1.3905,-1.3905,-1.3901,-1.3898,-1.3902,-1.3902,-1.3902,-1.39,-1.3893,-1.3893,-1.3892,-1.3892,0,-1.3971,-1.396,-1.3968,-1.3957,-1.3955,-1.3962,-1.3953,-1.3958,-1.395,-1.3955,-1.3956,-1.3944,-1.3946,-1.3934,-1.3935,-1.3929,-1.3942,-1.3937,-1.3943,-1.3942,-1.3955,-1.3953,-1.3999,-1.4004,-1.3959,-1.396,-1.396,0,-1.3993,-1.4,-1.399,-1.3991,-1.3987,-1.399,-1.399,-1.3976,-1.3976,-1.3971,-1.3976,-1.3977,-1.3977,-1.3981,-1.3973,-1.3973,-1.3967,-1.3983,-1.3967,-1.3971,-1.3967,-1.3967,-1.3967,-1.3987,-1.3987,-1.3988,-1.3988,0,-1.4033,-1.4027,-1.4027,-1.4025,-1.4026,-1.4024,-1.4021,-1.4023,-1.4008,-1.4009,-1.4011,-1.4011,-1.4011,-1.4012,-1.401,-1.4006,-1.3995,-1.3993,-1.3996,-1.4,-1.4003,-1.4001,-1.3952,-1.3992,-1.3992,-1.3991,-1.3991,-1.3991,-1.4064,-1.4069,-1.4062,-1.4063,-1.4059,-1.4057,-1.406,-1.4052,-1.4053,-1.4052,-1.4044,-1.4047,-1.4042,-1.4038,-1.4035,-1.4038,-1.403,-1.4034,-1.4035,-1.4037,-1.4039,-1.4003,-1.4037,-1.4037,-1.4037,-1.4037,-1.4037,0,-1.4103,-1.4097,-1.4098,-1.4094,-1.4095,-1.4083,-1.4079,-1.4081,-1.4084,-1.4079,-1.4079,-1.4081,-1.4082,-1.4073,-1.4073,-1.4077,-1.4071,-1.4077,-1.4077,-1.4076,-1.4046,-1.4043,-1.4081,-1.4081,-1.4081,-1.4081,-1.4081,-1.4081,-1.4123,-1.413,-1.4123,-1.4129,-1.4123,-1.4126,-1.4125,-1.4122,-1.4119,-1.4121,-1.4122,-1.4116,-1.411,-1.4109,-1.4109,-1.4106,-1.4107,-1.4115,-1.411,-1.4082,-1.4078,-1.4074,-1.4071,-1.4115,-1.4115,-1.414,-1.414,-1.4141]},{"header":{"parameterUnit":"m.s-1","parameterCategory":1,"la1":30.2991,"la2":30.254,"lo1":-89.0895,"lo2":-89.0444,"dy":0.0017,"dx":0.0017,"nx":28,"ny":28,"refTime":"2024-05-02T09:00:00:Z","depth":0,"parameterNumber":3,"parameterNumberName":"V-component_of_WINDS"},"data":[0,0,0,0,0,0,0,0,0,0,0,0,0,0,0,0,0,0,0,0,0,0,0,0,0,0,0,0,0,0,0,0,0,0,0,0,0,0,0,0,0,0,0,0,0,0,0,0,0,0,0,0,0,0,0,0,0,0,2.9283,2.9283,0,2.9303,2.9304,2.9304,2.928,2.9279,2.9278,2.9277,2.9296,2.9297,2.9298,0,0,0,0,0,0,0,0,0,0,0,0,0,2.9222,2.9223,2.9283,2.9283,2.9284,2.9303,2.9304,2.9304,2.928,2.9279,2.9278,2.9277,2.9295,2.9297,2.9298,0,0,0,0,0,0,0,0,0,0,0,0,0,2.9246,2.9223,2.9283,2.9274,2.9274,2.9303,2.9304,2.9304,2.928,2.9279,2.9278,2.9276,2.9295,2.9297,2.9299,2.9338,0,0,2.9305,2.9306,0,0,0,0,0,0,0,0,2.9244,2.9248,2.9275,2.9275,2.9274,2.9288,2.9289,2.9315,2.9281,2.9278,2.9277,2.9276,2.9294,2.9296,2.9303,2.9338,2.9339,2.9305,2.9306,2.9307,2.9308,0,0,0,0,0,0,0,2.9243,2.9247,2.9291,2.9276,2.9275,2.9268,2.927,2.9294,2.9293,2.9278,2.9276,2.9279,2.9293,2.9301,2.9303,2.9339,2.9305,2.9307,2.9308,2.9309,2.9407,2.9409,0,0,0,0,0,0,2.9242,2.9246,2.929,2.9292,2.9256,2.9271,2.9273,2.9285,2.9293,2.9293,2.928,2.9278,2.9298,2.9301,2.9303,2.9349,2.9307,2.9309,2.931,2.9406,2.9408,2.9409,0,0,0,0,0,0,2.9241,2.9247,2.929,2.9268,2.9273,2.9273,2.9287,2.9286,2.9293,2.9294,2.9294,2.9288,2.9297,2.9301,2.9329,2.9349,2.931,2.9312,2.9404,2.9406,2.9408,2.944,0,0,0,0,0,0,2.9239,2.9246,2.9262,2.9269,2.9274,2.9316,2.9288,2.9287,2.9297,2.9294,2.9302,2.9301,2.9296,2.9326,2.9331,2.9351,2.9313,2.9402,2.9405,2.9408,2.9437,2.9443,2.9448,0,0,0,0,0,2.9237,2.9269,2.9262,2.9268,2.9294,2.9317,2.932,2.9314,2.9299,2.9313,2.9314,2.9301,2.9346,2.933,2.9335,2.9356,2.9401,2.9404,2.9407,2.9435,2.9442,2.9448,0,0,0,0,0,0,2.9264,2.927,2.9263,2.9298,2.9307,2.9313,2.9331,2.9322,2.9335,2.9332,2.9323,2.9325,2.9356,2.9358,2.934,2.9393,2.9371,2.9375,2.939,2.9397,2.9402,2.94,2.9315,0,0,0,0,0,2.9274,2.9293,2.9297,2.9328,2.9333,2.9332,2.9342,2.9336,2.9345,2.9349,2.9352,2.936,2.9376,2.9387,2.9402,2.9438,2.9439,2.9455,2.946,2.9465,2.9468,2.9487,2.9494,2.942,2.942,2.942,0,0,2.9294,2.93,2.9313,2.9334,2.934,2.9359,2.9335,2.9356,2.937,2.9352,2.9379,2.9381,2.939,2.9423,2.9437,2.9426,2.9489,2.9469,2.9472,2.9473,2.9491,2.9498,2.9504,2.9422,2.9422,2.9421,0,0,2.9342,2.9349,2.9375,2.9382,2.9392,2.9391,2.9398,2.9405,2.9406,2.9433,2.942,2.9436,2.9464,2.947,2.9477,2.9528,2.9516,2.9533,2.956,2.9579,2.9585,2.959,2.9607,2.9613,2.9536,2.9537,2.9537,0,2.9366,2.9395,2.9389,2.9412,2.9421,2.9406,2.9432,2.9439,2.9453,2.9459,2.9447,2.9482,2.9487,2.952,2.9532,2.9539,2.9545,2.9531,2.9584,2.959,2.9594,2.961,2.9617,2.9538,2.9538,2.9538,2.9538,0,2.9424,2.9444,2.9464,2.9479,2.9491,2.9515,2.9512,2.9524,2.9518,2.9518,2.9545,2.9551,2.9566,2.9574,2.9568,2.9606,2.9599,2.9586,2.9563,2.9603,2.9618,2.9624,2.9541,2.9541,2.954,2.9539,0,0,2.9488,2.95,2.9507,2.9514,2.9524,2.9539,2.9562,2.9578,2.9588,2.9599,2.9617,2.9641,2.9629,2.9637,2.9632,2.9648,2.9686,2.9633,2.9633,2.9642,2.9728,2.9738,2.9745,2.9679,2.968,2.9681,2.9727,0,2.9535,2.9576,2.9571,2.961,2.9628,2.9614,2.9634,2.9642,2.9643,2.9658,2.9658,2.9675,2.9658,2.9662,2.9678,2.9679,2.9704,2.9675,2.9695,2.9696,2.9693,2.9753,2.9763,2.9806,2.9733,2.9734,2.9735,0,2.9596,2.9609,2.9649,2.9657,2.9664,2.9682,2.9696,2.9711,2.9719,2.9719,2.9728,2.9719,2.9742,2.972,2.975,2.973,2.9738,2.974,2.9742,2.9742,2.9717,2.9755,2.982,2.9826,2.9744,2.9744,2.9743,0,2.9637,2.9665,2.9693,2.9699,2.9708,2.9721,2.9726,2.9733,2.9743,2.9755,2.9761,2.9775,2.9782,2.9793,2.9789,2.9773,2.982,2.9797,2.9819,2.9819,2.9828,2.9828,2.9895,2.9835,2.9835,2.9835,2.9835,0,2.969,2.9715,2.9712,2.9729,2.9756,2.975,2.9778,2.978,2.9787,2.9803,2.9792,2.9808,2.9801,2.9816,2.9813,2.9838,2.9841,2.9841,2.9839,2.9841,2.9841,2.9846,2.9842,2.9837,2.9836,2.9836,2.9836,0,2.9741,2.974,2.9769,2.9776,2.9778,2.9798,2.9803,2.9819,2.9818,2.9839,2.9844,2.9843,2.986,2.9857,2.9876,2.9874,2.9905,2.99,2.9902,2.9901,2.9922,2.992,2.9994,3.0003,2.9938,2.9939,2.9939,0,2.9774,2.9793,2.9802,2.9813,2.9818,2.9835,2.9845,2.984,2.9851,2.9862,2.9876,2.9892,2.9905,2.9932,2.9933,2.9947,2.9942,2.9967,2.9944,2.9946,2.9942,2.994,2.9942,2.9972,2.9972,2.9973,2.9974,0,2.9833,2.9832,2.9847,2.9862,2.9874,2.9885,2.9895,2.9905,2.99,2.9913,2.993,2.994,2.9959,2.9975,2.9988,2.9992,2.9982,2.9981,2.9987,2.9988,2.9988,2.9988,2.9913,2.9979,2.9978,2.9978,2.9978,2.9978,2.9876,2.9892,2.9901,2.9918,2.9925,2.9934,2.9949,2.9951,2.9966,2.9981,2.9977,2.9997,3.0005,3.0021,3.0026,3.0041,3.0032,3.004,3.0042,3.0044,3.0046,2.9987,3.0044,3.0044,3.0043,3.0043,3.0043,0,2.9934,2.9939,2.9954,2.9969,2.9982,2.9972,2.9983,2.9994,3.0012,3.002,3.0033,3.0053,3.0068,3.007,3.0085,3.0096,3.0092,3.01,3.0098,3.0099,3.0054,3.0048,3.0103,3.0103,3.0103,3.0103,3.0103,3.0103,2.9965,2.9992,2.9991,3.0021,3.0025,3.0045,3.0051,3.006,3.0066,3.0089,3.0102,3.0104,3.0109,3.0124,3.0137,3.0137,3.0143,3.0152,3.0151,3.0108,3.0102,3.0097,3.009,3.0154,3.0154,3.0194,3.0195,3.0195]}]]